When you browse on this site, cookies collect data to enhance your experience and personalize the content and advertising you see.
Visit our Privacy Policy to learn more. By continuing to use the site, you agree to this use of cookies and data.
  • In Lithuania
  • List of Countries
  • For 7 days
  • Water Temperature
  • Satellite Maps
  • Weather Map
  • Weather Widgets
  • user-avatar
    Login

    Hourly Weather Igls

    Today, 18 December, Tuesday

    Time Temperature Precipitation Wind Pressure Humidity
    00:00 -3°C° 0.1 mm 2 mps 690 mmHg 93%
    01:00 -1°C° 0 mm 1 mps 690 mmHg 93%
    02:00 -2°C° 0 mm 1 mps 690 mmHg 92%
    03:00 -2°C° 0 mm 1 mps 690 mmHg 91%
    04:00 -3°C° 0 mm 1 mps 689 mmHg 90%
    05:00 -3°C° 0 mm 1 mps 689 mmHg 86%
    06:00 -3°C° 0 mm 1 mps 689 mmHg 82%
    07:00 -4°C° 0 mm 1 mps 689 mmHg 83%
    08:00 -2°C° 0 mm 1 mps 689 mmHg 79%
    09:00 -1°C° 0 mm 1 mps 689 mmHg 76%
    10:00 +1°C° 0 mm 1 mps 690 mmHg 72%
    11:00 +2°C° 0 mm 1 mps 689 mmHg 71%
    12:00 +4°C° 0 mm 1 mps 689 mmHg 69%
    13:00 +5°C° 0 mm 1 mps 689 mmHg 67%
    14:00 +3°C° 0 mm 1 mps 688 mmHg 68%
    15:00 +2°C° 0 mm 1 mps 688 mmHg 70%
    16:00 -1°C° 0 mm 2 mps 687 mmHg 71%
    17:00 -1°C° 0 mm 2 mps 687 mmHg 68%
    18:00 -2°C° 0 mm 2 mps 687 mmHg 65%
    19:00 -3°C° 0 mm 2 mps 687 mmHg 61%
    20:00 -3°C° 0 mm 2 mps 687 mmHg 60%
    21:00 -3°C° 0 mm 2 mps 687 mmHg 58%
    22:00 -3°C° 0 mm 2 mps 686 mmHg 57%
    23:00 -2°C° 0 mm 2 mps 686 mmHg 56%

    Tomorrow, 19 December, Wednesday

    Time Temperature Precipitation Wind Pressure Humidity
    00:00 -2°C° 0 mm 2 mps 686 mmHg 55%
    01:00 -2°C° 0 mm 2 mps 686 mmHg 55%
    02:00 -2°C° 0 mm 2 mps 686 mmHg 55%
    03:00 -2°C° 0 mm 2 mps 685 mmHg 55%
    04:00 -2°C° 0 mm 2 mps 685 mmHg 54%
    05:00 -1°C° 0 mm 2 mps 685 mmHg 55%
    06:00 -1°C° 0 mm 2 mps 685 mmHg 56%
    07:00 -1°C° 0 mm 2 mps 685 mmHg 57%
    08:00 +1°C° 0 mm 2 mps 685 mmHg 60%
    09:00 +2°C° 0 mm 2 mps 685 mmHg 62%
    10:00 +3°C° 0 mm 2 mps 686 mmHg 64%
    11:00 +4°C° 0 mm 2 mps 685 mmHg 67%
    12:00 +4°C° 0 mm 2 mps 685 mmHg 69%
    13:00 +6°C° 0 mm 1 mps 685 mmHg 71%
    14:00 +5°C° 0 mm 1 mps 684 mmHg 72%
    15:00 +3°C° 0 mm 2 mps 684 mmHg 73%
    16:00 +2°C° 0 mm 2 mps 683 mmHg 74%
    17:00 +1°C° 0 mm 2 mps 683 mmHg 75%
    18:00 -1°C° 0 mm 2 mps 683 mmHg 75%
    19:00 -2°C° 0 mm 2 mps 683 mmHg 76%
    20:00 -2°C° 0 mm 2 mps 683 mmHg 78%
    21:00 -1°C° 0 mm 2 mps 683 mmHg 79%
    22:00 -1°C° 0 mm 2 mps 683 mmHg 81%
    23:00 -1°C° 0.3 mm 2 mps 684 mmHg 84%

    Day after tomorrow, 20 December, Thursday

    Time Temperature Precipitation Wind Pressure Humidity
    00:00 +1°C° 0.3 mm 1 mps 684 mmHg 87%
    01:00 +2°C° 0.3 mm 1 mps 684 mmHg 90%
    02:00 +2°C° 0.5 mm 1 mps 684 mmHg 91%
    03:00 +2°C° 0.5 mm 1 mps 684 mmHg 93%
    04:00 +2°C° 0.5 mm 1 mps 684 mmHg 94%
    05:00 +2°C° 0.4 mm 1 mps 684 mmHg 94%
    06:00 +2°C° 0.4 mm 1 mps 684 mmHg 94%
    07:00 +2°C° 0.4 mm 1 mps 684 mmHg 93%
    08:00 +3°C° 0.3 mm 1 mps 685 mmHg 93%
    09:00 +3°C° 0.3 mm 1 mps 685 mmHg 92%
    10:00 +4°C° 0.3 mm 1 mps 685 mmHg 91%
    11:00 +4°C° 0.2 mm 1 mps 685 mmHg 91%
    12:00 +5°C° 0.2 mm 1 mps 685 mmHg 90%
    13:00 +5°C° 0.2 mm 1 mps 685 mmHg 89%
    14:00 +4°C° 0.2 mm 1 mps 685 mmHg 90%
    15:00 +4°C° 0.2 mm 1 mps 685 mmHg 91%
    16:00 +3°C° 0.2 mm 1 mps 686 mmHg 92%
    17:00 +2°C° 0.1 mm 1 mps 686 mmHg 92%
    18:00 +2°C° 0.1 mm 1 mps 686 mmHg 91%
    19:00 +1°C° 0.1 mm 1 mps 687 mmHg 91%
    20:00 0°C° 0 mm 1 mps 687 mmHg 89%
    21:00 0°C° 0 mm 1 mps 687 mmHg 87%
    22:00 0°C° 0 mm 1 mps 687 mmHg 85%
    23:00 -3°C° 0 mm 2 mps 687 mmHg 84%

    21 December, Friday

    Time Temperature Precipitation Wind Pressure Humidity
    00:00 -3°C° 0 mm 2 mps 687 mmHg 82%
    01:00 -3°C° 0 mm 2 mps 687 mmHg 80%
    02:00 -3°C° 0 mm 2 mps 687 mmHg 78%
    03:00 -3°C° 0 mm 2 mps 687 mmHg 77%
    04:00 -2°C° 0 mm 2 mps 687 mmHg 76%
    05:00 -2°C° 0 mm 2 mps 687 mmHg 74%
    06:00 -2°C° 0 mm 2 mps 687 mmHg 73%
    07:00 -2°C° 0 mm 2 mps 687 mmHg 72%
    08:00 0°C° 0 mm 3 mps 686 mmHg 71%
    09:00 +1°C° 0 mm 3 mps 686 mmHg 70%
    10:00 +2°C° 0 mm 3 mps 686 mmHg 69%
    11:00 +3°C° 0.1 mm 3 mps 686 mmHg 71%
    12:00 +3°C° 0.1 mm 3 mps 685 mmHg 73%
    13:00 +4°C° 0.1 mm 3 mps 685 mmHg 74%
    14:00 +4°C° 0.4 mm 3 mps 685 mmHg 76%
    15:00 +4°C° 0.4 mm 3 mps 685 mmHg 78%
    16:00 +4°C° 0.4 mm 3 mps 685 mmHg 79%
    17:00 +5°C° 0.6 mm 2 mps 685 mmHg 79%
    18:00 +5°C° 0.6 mm 2 mps 685 mmHg 79%
    19:00 +5°C° 0.6 mm 2 mps 685 mmHg 79%
    20:00 +5°C° 0.3 mm 2 mps 685 mmHg 79%
    21:00 +5°C° 0.3 mm 2 mps 685 mmHg 80%
    22:00 +5°C° 0.3 mm 2 mps 685 mmHg 80%
    23:00 +5°C° 0.1 mm 2 mps 685 mmHg 81%

    22 December, Saturday

    Time Temperature Precipitation Wind Pressure Humidity
    00:00 +6°C° 0.1 mm 2 mps 685 mmHg 82%
    01:00 +6°C° 0.1 mm 2 mps 685 mmHg 83%
    02:00 +6°C° 0.5 mm 2 mps 685 mmHg 85%
    03:00 +6°C° 0.5 mm 2 mps 685 mmHg 86%
    04:00 +6°C° 0.5 mm 2 mps 685 mmHg 88%
    05:00 +6°C° 0.2 mm 2 mps 685 mmHg 87%
    06:00 +6°C° 0.2 mm 2 mps 685 mmHg 87%
    07:00 +6°C° 0.2 mm 2 mps 684 mmHg 86%
    08:00 +6°C° 0.1 mm 2 mps 685 mmHg 86%
    09:00 +7°C° 0.1 mm 2 mps 685 mmHg 87%
    10:00 +7°C° 0.1 mm 2 mps 685 mmHg 87%
    11:00 +8°C° 0 mm 2 mps 685 mmHg 89%
    12:00 +8°C° 0 mm 2 mps 685 mmHg 92%
    13:00 +9°C° 0 mm 2 mps 685 mmHg 94%
    14:00 +8°C° 0 mm 2 mps 684 mmHg 93%
    15:00 +7°C° 0 mm 2 mps 684 mmHg 92%
    16:00 +6°C° 0 mm 2 mps 684 mmHg 91%
    17:00 +6°C° 0 mm 2 mps 685 mmHg 89%
    18:00 +5°C° 0 mm 2 mps 685 mmHg 88%
    19:00 +5°C° 0 mm 2 mps 686 mmHg 87%
    20:00 +5°C° 0.1 mm 2 mps 686 mmHg 87%
    21:00 +5°C° 0.1 mm 2 mps 686 mmHg 87%
    22:00 +5°C° 0.1 mm 2 mps 687 mmHg 88%
    23:00 +5°C° 0.2 mm 2 mps 687 mmHg 89%

    23 December, Sunday

    Time Temperature Precipitation Wind Pressure Humidity
    00:00 +4°C° 0.2 mm 2 mps 687 mmHg 90%
    01:00 +4°C° 0.2 mm 2 mps 687 mmHg 90%
    02:00 +4°C° 0.3 mm 2 mps 687 mmHg 91%
    03:00 +4°C° 0.3 mm 2 mps 687 mmHg 91%
    04:00 +4°C° 0.3 mm 2 mps 687 mmHg 91%
    05:00 +4°C° 0.4 mm 2 mps 688 mmHg 91%
    06:00 +5°C° 0.4 mm 1 mps 688 mmHg 92%
    07:00 +5°C° 0.4 mm 1 mps 688 mmHg 92%
    08:00 +6°C° 0.5 mm 1 mps 688 mmHg 92%
    09:00 +6°C° 0.5 mm 1 mps 688 mmHg 92%
    10:00 +7°C° 0.5 mm 1 mps 688 mmHg 92%
    11:00 +7°C° 0.4 mm 1 mps 688 mmHg 93%
    12:00 +8°C° 0.4 mm 1 mps 688 mmHg 94%
    13:00 +8°C° 0.4 mm 1 mps 688 mmHg 94%
    14:00 +8°C° 0.6 mm 1 mps 687 mmHg 93%
    15:00 +8°C° 0.6 mm 1 mps 687 mmHg 92%
    16:00 +8°C° 0.6 mm 1 mps 687 mmHg 91%
    17:00 +7°C° 1 mm 1 mps 687 mmHg 91%
    18:00 +7°C° 1 mm 1 mps 688 mmHg 91%
    19:00 +7°C° 1 mm 1 mps 688 mmHg 91%
    20:00 +7°C° 0.5 mm 1 mps 688 mmHg 90%
    21:00 +7°C° 0.5 mm 1 mps 688 mmHg 89%
    22:00 +7°C° 0.5 mm 1 mps 688 mmHg 89%
    23:00 +7°C° 0.7 mm 1 mps 688 mmHg 89%
    Show more